Location: Caltech
(34.1382°N, 118.1253°W)
Time: 12:59:39
(UTC-07:00)

Cosmos 2333 Rocket - Visible Passes

Search period start: 31 May 2016 00:00
Search period end: 10 June 2016 00:00
Orbit: 841 x 861 km, 70.8° (Epoch: 30 May)

Date Brightness Start Highest point End Pass type
(mag) Time Alt. Az. Time Alt. Az. Time Alt. Az.
31 May 4.4 04:01:29 10° N 04:06:17 27° ENE 04:11:05 10° ESE visible
01 Jun 4.4 03:49:15 10° N 03:54:04 27° ENE 03:58:52 10° ESE visible
02 Jun 4.3 03:37:02 10° N 03:41:50 27° ENE 03:46:38 10° ESE visible
03 Jun 4.3 03:24:47 10° N 03:29:37 27° ENE 03:34:25 10° ESE visible
03 Jun 2.8 05:08:42 10° NW 05:13:52 36° WSW 05:19:02 10° SSW visible
04 Jun 4.2 03:12:34 10° N 03:17:23 27° ENE 03:22:11 10° ESE visible
04 Jun 2.8 04:56:28 10° NW 05:01:39 36° WSW 05:06:49 10° SSW visible
05 Jun 4.2 03:00:20 10° N 03:05:09 27° ENE 03:09:58 10° ESE visible
05 Jun 2.8 04:44:15 10° NW 04:49:25 36° WSW 04:54:35 10° SSW visible
06 Jun 4.1 02:48:06 10° N 02:52:55 27° ENE 02:57:44 10° ESE visible
06 Jun 2.8 04:32:01 10° NW 04:37:11 36° WSW 04:42:21 10° SSW visible
07 Jun 4.1 02:35:52 10° N 02:40:42 27° ENE 02:45:30 10° ESE visible
07 Jun 2.8 04:19:47 10° NW 04:24:58 36° WSW 04:30:07 10° SSW visible
08 Jun 4.0 02:23:38 10° N 02:28:28 27° ENE 02:33:18 10° ESE visible
08 Jun 2.8 04:07:34 10° NW 04:12:44 36° WSW 04:16:10 19° SSW visible
09 Jun 4.0 02:11:24 10° N 02:16:14 27° ENE 02:20:38 12° ESE visible
09 Jun 2.8 03:55:20 10° NW 04:00:30 36° WSW 04:02:32 27° SW visible
